Regional Weather Roundup
Issued by NWS

Home | Current Version | Previous Version | Text Only | Print | Product List | Glossary On
Versions: 1 2 3 4 5 6 7 8 9 10 11 12 13 14 15 16 17 18 19 20 21 22 23 24 25 26 27 28 29 30 31 32 33 34 35 36 37 38 39 40 41 42 43 44 45 46 47 48 49 50
000
ASUS43 KTOP 050908
RWRKS

WEATHER ROUNDUP FOR KANSAS
NATIONAL WEATHER SERVICE GOODLAND KS
400 AM CDT TUE MAY 05 2015

NOTE:  "FAIR" INDICATES FEW OR NO CLOUDS BELOW 12,000 FEET WITH NO
SIGNIFICANT WEATHER AND/OR OBSTRUCTIONS TO VISIBILITY.

KSZ001>006-013>018-027>032-041>047-051000-
NORTHWEST KANSAS

CITY           SKY/WX    TMP DP  RH WIND       PRES   REMARKS
GOODLAND       LGT RAIN  51  50  96 E5        30.05S FOG
HAYS           CLOUDY    59  54  82 E12       30.02F
HILL CITY      LGT RAIN  58  57  97 E3        30.03R FOG
RUSSELL        CLOUDY    60  59  96 E8        30.02F
$$

KSZ061>065-074>080-084>089-051000-
SOUTHWEST KANSAS

CITY           SKY/WX    TMP DP  RH WIND       PRES   REMARKS
DODGE CITY     CLOUDY    59  56  89 E14       29.99F
ELKHART          N/A     56  53  90 E8          N/A
GARDEN CITY    LGT RAIN  56  56 100 NE12      29.99F
GREAT BEND     CLOUDY    61  55  82 E13       30.02F
LIBERAL        CLOUDY    61  55  82 NE7       29.97F
PRATT          CLOUDY    61  54  77 SE7       30.03S
$$

KSZ066>073-081>083-090>101-051000-
SOUTHEAST KANSAS

CITY           SKY/WX    TMP DP  RH WIND       PRES   REMARKS
CHANUTE        PTCLDY    59  56  89 SE6       30.08S
COFFEYVILLE    PTCLDY    58  54  86 E3        30.08R
HUTCHINSON     CLOUDY    63  57  81 E7        30.03F
MEDICINE LODGE   N/A     62  57  83 E6        30.00F
NEWTON         PTCLDY    63  54  72 SE7       30.07S
PARSONS        PTCLDY    62  56  80 SE5       30.10R
WICHITA INTL   MOCLDY    66  55  67 SE9       30.04S
WICHITA JABRA  CLOUDY    64  56  75 S7        30.05S
WICHITA MCCONL CLOUDY    64  56  75 SE7       30.05S
WINFIELD       CLOUDY    63  55  75 SE8       30.05F
$$

KSZ007>012-019>026-033>040-048>060-102>105-051000-
NORTHEAST KANSAS

CITY           SKY/WX    TMP DP  RH WIND       PRES   REMARKS
CONCORDIA      LGT RAIN  60  58  92 S6        30.04F
EMPORIA        PTCLDY    59  57  93 CALM      30.07S
LAWRENCE       CLOUDY    61  60  97 CALM      30.07S
MANHATTAN      MOCLDY    59  59 100 CALM      30.05F
MARYSVILLE     CLOUDY    59  59 100 S6        30.04S
OLATHE IND     CLOUDY    62  60  93 SE9       30.08F
OLATHE EXE     CLOUDY    61  60  97 S5        30.07F FOG
SALINA         MOCLDY    62  58  86 CALM      30.05S
TOPEKA BILLARD MOCLDY    62  60  93 CALM      30.07S
TOPEKA FORBES  PTCLDY    61  58  90 SW3       30.06F
$$



USA.gov is the U.S. government's official web portal to all federal, state and local government web resources and services.